This is the latest recevied weather packets stored in our database for station/object N4DBJ. If no packets are shown the sender has not sent any weather packets the latest 10 day(s).
| Time | Temp. | Humidity | Pressure | Rain* | Wind** | Luminosity | Snow |
|---|---|---|---|---|---|---|---|
| 1778086265 | 11.67° C | 99% | 1011.5 hPa | 0 mm | - | 157 W/m² | - |
| 1778085963 | 11.11° C | 99% | 1011.3 hPa | 0 mm | - | 145 W/m² | - |
| 1778085660 | 11.11° C | 99% | 1011.5 hPa | 0 mm | - | 152 W/m² | - |
| 1778085355 | 11.11° C | 99% | 1011.5 hPa | 0 mm | - | 94 W/m² | - |
| 1778085051 | 11.11° C | 99% | 1011.7 hPa | 0 mm | - | 66 W/m² | - |
| 1778084748 | 11.11° C | 99% | 1011.3 hPa | 0 mm | - | 80 W/m² | - |
| 1778084440 | 11.11° C | 99% | 1011.5 hPa | 0 mm | - | 65 W/m² | - |
| 1778084137 | 11.11° C | 99% | 1011.3 hPa | 0 mm | - | 92 W/m² | - |
| 1778083834 | 11.11° C | 99% | 1011.1 hPa | 0 mm | - | 88 W/m² | - |
| 1778083532 | 11.11° C | 99% | 1011.2 hPa | 0 mm | - | 105 W/m² | - |
| 1778083228 | 11.11° C | 99% | 1011 hPa | 0 mm | - | 86 W/m² | - |
| 1778082927 | 11.11° C | 99% | 1011 hPa | 0 mm | - | 118 W/m² | - |
| 1778081824 | 11.11° C | 99% | 1010.8 hPa | 0 mm | - | 193 W/m² | - |
| 1778081521 | 11.11° C | 99% | 1011.2 hPa | 0 mm | - | 146 W/m² | - |
| 1778081218 | 10.56° C | 99% | 1011 hPa | 0 mm | - | 112 W/m² | - |
| 1778080915 | 10.56° C | 99% | 1011.2 hPa | 0 mm | - | 76 W/m² | - |
| 1778080615 | 10.56° C | 99% | 1011 hPa | 0 mm | - | 82 W/m² | - |
| 1778080310 | 10.56° C | 99% | 1010.9 hPa | 0 mm | - | 56 W/m² | - |
| 1778080007 | 10.56° C | 99% | 1010.8 hPa | 0 mm | - | 47 W/m² | - |
| 1778079704 | 10.56° C | 99% | 1010.6 hPa | 0 mm | - | 52 W/m² | - |
| 1778079401 | 10.56° C | 99% | 1010.5 hPa | 0 mm | - | 64 W/m² | - |
| 1778079098 | 10.56° C | 99% | 1010.5 hPa | 0 mm | - | 98 W/m² | - |
| 1778078796 | 10.56° C | 99% | 1010.6 hPa | 0 mm | - | 71 W/m² | - |
| 1778078492 | 10.56° C | 99% | 1010.4 hPa | 0 mm | - | 60 W/m² | - |
| 1778078190 | 10.56° C | 99% | 1010.4 hPa | 0 mm | - | 61 W/m² | - |
* Rain latest hour (hover to see other rain measurements)
** Current wind speed in m/s (hover to see current wind gust speed)